Tracking 30696 objects as of 15-Jun-2025
HD Live streaming from Space Station
objects crossing your sky now

STARLINK-31024

Track STARLINK-31024 now!
10-day predictions
STARLINK-31024 is classified as:


NORAD ID: 58786
Int'l Code: 2024-011X
Perigee: 558.3 km
Apogee: 559.5 km
Inclination: 53.2 °
Period: 95.7 minutes
Semi major axis: 6929 km
RCS: Unknown
Launch date: January 14, 2024
Source: United States (US)
Launch site: AIR FORCE WESTERN TEST RANGE (AFWTR)
Your satellite tracking list
Your tracking list is empty




NASA's NSSDC Master Catalog

Two Line Element Set (TLE):
1 58786U 24011X   25166.02163733 -.00014900  00000-0 -10238-2 0  9999
2 58786  53.1585 171.7323 0000853  49.6577 310.4487 15.04921558 79239
Source of the keplerian elements: AFSPC